TimeCST,TemperatureF,Dew PointF,Humidity,Sea Level PressureIn,VisibilityMPH,Wind Direction,Wind SpeedMPH,Gust SpeedMPH,PrecipitationIn,Events,Conditions,WindDirDegrees,DateUTC
12:15 AM,19.4,19.4,100,30.32,4.0,NW,5.8,-,N/A,,Clear,310,2013-03-02 06:15:00
12:35 AM,17.6,14.0,86,30.32,4.0,WNW,5.8,-,N/A,,Clear,300,2013-03-02 06:35:00
1:15 AM,19.4,15.8,86,30.31,5.0,North,3.5,-,N/A,,Clear,350,2013-03-02 07:15:00
1:35 AM,17.6,15.8,93,30.31,6.0,North,3.5,-,N/A,,Clear,10,2013-03-02 07:35:00
1:55 AM,17.6,15.8,93,30.32,5.0,NW,3.5,-,N/A,,Clear,310,2013-03-02 07:55:00
2:15 AM,12.2,10.4,92,30.33,4.0,West,5.8,-,N/A,,Clear,260,2013-03-02 08:15:00
2:35 AM,15.8,12.2,86,30.32,5.0,West,5.8,-,N/A,,Clear,260,2013-03-02 08:35:00
2:55 AM,17.6,15.8,93,30.31,4.0,WNW,4.6,-,N/A,,Clear,290,2013-03-02 08:55:00
3:15 AM,17.6,15.8,93,30.31,3.0,WNW,3.5,-,N/A,,Clear,290,2013-03-02 09:15:00
3:35 AM,17.6,15.8,93,30.30,4.0,North,3.5,-,N/A,,Clear,360,2013-03-02 09:35:00
3:55 AM,15.8,12.2,86,30.30,4.0,NNE,3.5,-,N/A,,Clear,20,2013-03-02 09:55:00
4:15 AM,12.2,8.6,85,30.31,7.0,Calm,Calm,-,N/A,,Clear,0,2013-03-02 10:15:00
4:35 AM,12.2,10.4,92,30.30,5.0,South,3.5,-,N/A,,Clear,170,2013-03-02 10:35:00
4:55 AM,14.0,12.2,93,30.29,5.0,Calm,Calm,-,N/A,,Clear,0,2013-03-02 10:55:00
5:15 AM,14.0,10.4,86,30.29,4.0,Calm,Calm,-,N/A,,Clear,0,2013-03-02 11:15:00
5:35 AM,14.0,10.4,86,30.29,8.0,Calm,Calm,-,N/A,,Clear,0,2013-03-02 11:35:00
5:55 AM,14.0,10.4,86,30.28,4.0,Calm,Calm,-,N/A,,Partly Cloudy,0,2013-03-02 11:55:00
6:15 AM,12.2,10.4,92,30.29,2.5,Calm,Calm,-,N/A,,Mostly Cloudy,0,2013-03-02 12:15:00
6:35 AM,12.2,10.4,92,30.27,0.2,Calm,Calm,-,N/A,,Overcast,0,2013-03-02 12:35:00
6:55 AM,12.2,10.4,92,30.27,3.0,Calm,Calm,-,N/A,,Overcast,0,2013-03-02 12:55:00
7:15 AM,12.2,8.6,85,30.28,3.0,Calm,Calm,-,N/A,,Mostly Cloudy,0,2013-03-02 13:15:00
7:35 AM,12.2,10.4,92,30.28,3.0,Calm,Calm,-,N/A,,Partly Cloudy,0,2013-03-02 13:35:00
7:55 AM,12.2,10.4,92,30.27,4.0,Calm,Calm,-,N/A,,Scattered Clouds,0,2013-03-02 13:55:00
8:15 AM,15.8,15.8,100,30.27,5.0,Calm,Calm,-,N/A,,Mostly Cloudy,0,2013-03-02 14:15:00
8:35 AM,17.6,15.8,93,30.27,5.0,Calm,Calm,-,N/A,,Overcast,0,2013-03-02 14:35:00
8:55 AM,19.4,17.6,93,30.27,4.0,Calm,Calm,-,N/A,,Overcast,0,2013-03-02 14:55:00
9:15 AM,19.4,17.6,93,30.27,4.0,Calm,Calm,-,N/A,,Overcast,0,2013-03-02 15:15:00
9:35 AM,21.2,19.4,93,30.27,5.0,Calm,Calm,-,N/A,,Overcast,0,2013-03-02 15:35:00
9:55 AM,24.8,23.0,93,30.25,6.0,South,6.9,-,N/A,,Overcast,180,2013-03-02 15:55:00
10:15 AM,26.6,26.6,100,30.25,8.0,South,6.9,-,N/A,,Overcast,170,2013-03-02 16:15:00
10:35 AM,26.6,26.6,100,30.26,9.0,SSE,5.8,-,N/A,,Overcast,160,2013-03-02 16:35:00
10:55 AM,28.4,26.6,93,30.25,10.0,SSE,5.8,-,N/A,,Overcast,160,2013-03-02 16:55:00
11:15 AM,28.4,26.6,93,30.25,10.0,SSE,4.6,-,N/A,,Mostly Cloudy,160,2013-03-02 17:15:00
11:35 AM,30.2,26.6,86,30.24,10.0,SSE,6.9,-,N/A,,Partly Cloudy,150,2013-03-02 17:35:00
11:55 AM,32.0,28.4,87,30.24,10.0,SE,5.8,-,N/A,,Clear,140,2013-03-02 17:55:00
12:15 PM,33.8,28.4,81,30.24,10.0,SE,6.9,-,N/A,,Clear,140,2013-03-02 18:15:00
12:35 PM,33.8,28.4,81,30.23,10.0,SE,5.8,-,N/A,,Clear,140,2013-03-02 18:35:00
12:55 PM,33.8,28.4,81,30.22,10.0,SSE,6.9,-,N/A,,Clear,150,2013-03-02 18:55:00
1:15 PM,35.6,28.4,75,30.21,10.0,SSE,6.9,-,N/A,,Clear,160,2013-03-02 19:15:00
1:35 PM,37.4,30.2,75,30.20,10.0,SSW,8.1,-,N/A,,Clear,210,2013-03-02 19:35:00
1:55 PM,37.4,28.4,70,30.19,10.0,South,5.8,-,N/A,,Clear,190,2013-03-02 19:55:00
2:15 PM,37.4,30.2,75,30.19,10.0,South,8.1,-,N/A,,Clear,180,2013-03-02 20:15:00
2:35 PM,37.4,30.2,75,30.17,10.0,South,9.2,-,N/A,,Clear,180,2013-03-02 20:35:00
2:55 PM,37.4,30.2,75,30.17,10.0,South,9.2,-,N/A,,Clear,190,2013-03-02 20:55:00
3:15 PM,37.4,30.2,75,30.17,10.0,SSW,9.2,-,N/A,,Clear,210,2013-03-02 21:15:00
3:35 PM,37.4,30.2,75,30.16,10.0,SSW,6.9,-,N/A,,Clear,210,2013-03-02 21:35:00
3:55 PM,37.4,30.2,75,30.15,10.0,SSW,6.9,-,N/A,,Clear,210,2013-03-02 21:55:00
4:15 PM,37.4,30.2,75,30.14,10.0,SSW,8.1,-,N/A,,Clear,210,2013-03-02 22:15:00
4:35 PM,37.4,30.2,75,30.14,10.0,SSW,6.9,-,N/A,,Clear,210,2013-03-02 22:35:00
4:55 PM,37.4,32.0,81,30.13,10.0,SSW,5.8,-,N/A,,Clear,200,2013-03-02 22:55:00
5:15 PM,37.4,32.0,81,30.13,10.0,SSW,6.9,-,N/A,,Clear,210,2013-03-02 23:15:00
5:35 PM,37.4,32.0,81,30.12,10.0,SSW,4.6,-,N/A,,Clear,210,2013-03-02 23:35:00
5:55 PM,35.6,30.2,81,30.12,10.0,SSW,6.9,-,N/A,,Clear,210,2013-03-02 23:55:00
6:15 PM,35.6,30.2,81,30.12,10.0,SSW,6.9,-,N/A,,Clear,210,2013-03-03 00:15:00
6:35 PM,35.6,30.2,81,30.13,10.0,South,5.8,-,N/A,,Clear,190,2013-03-03 00:35:00
6:55 PM,33.8,30.2,87,30.13,10.0,South,4.6,-,N/A,,Clear,190,2013-03-03 00:55:00
7:15 PM,33.8,30.2,87,30.12,10.0,SSW,5.8,-,N/A,,Clear,200,2013-03-03 01:15:00
7:35 PM,33.8,28.4,81,30.12,10.0,South,4.6,-,N/A,,Clear,190,2013-03-03 01:35:00
7:55 PM,33.8,30.2,87,30.11,10.0,SSW,3.5,-,N/A,,Clear,200,2013-03-03 01:55:00
8:15 PM,32.0,28.4,87,30.11,8.0,SW,4.6,-,N/A,,Clear,230,2013-03-03 02:15:00
8:35 PM,30.2,28.4,93,30.09,7.0,SSW,5.8,-,N/A,,Clear,200,2013-03-03 02:35:00
8:55 PM,32.0,28.4,87,30.09,7.0,SW,5.8,-,N/A,,Clear,220,2013-03-03 02:55:00
9:15 PM,32.0,28.4,87,30.08,7.0,SSW,5.8,-,N/A,,Clear,200,2013-03-03 03:15:00
9:35 PM,32.0,28.4,87,30.08,7.0,SW,5.8,-,N/A,,Clear,220,2013-03-03 03:35:00
9:55 PM,32.0,30.2,93,30.09,8.0,WSW,6.9,-,N/A,,Clear,240,2013-03-03 03:55:00
10:15 PM,33.8,30.2,87,30.08,8.0,SW,5.8,-,N/A,,Clear,230,2013-03-03 04:15:00
10:35 PM,33.8,30.2,87,30.08,8.0,SSW,4.6,-,N/A,,Clear,210,2013-03-03 04:35:00
10:55 PM,32.0,28.4,87,30.07,7.0,SW,5.8,-,N/A,,Clear,220,2013-03-03 04:55:00
11:15 PM,32.0,28.4,87,30.06,7.0,SW,8.1,-,N/A,,Clear,220,2013-03-03 05:15:00
11:35 PM,33.8,30.2,87,30.06,8.0,SSW,8.1,-,N/A,,Clear,210,2013-03-03 05:35:00
11:55 PM,33.8,30.2,87,30.05,8.0,WSW,4.6,-,N/A,,Scattered Clouds,240,2013-03-03 05:55:00